Location: Fort Wayne
(41.1310°N, 85.1290°W)
Time: 20:52:11
(UTC-04:00)

Vanguard 3 - Visible Passes

Search period start: 01 July 2015 00:00
Search period end: 11 July 2015 00:00
Orbit: 509 x 3270 km, 33.3° (Epoch: 30 June)

Date Brightness Start Highest point End Pass type
(mag) Time Alt. Az. Time Alt. Az. Time Alt. Az.
01 Jul 8.8 01:05:51 10° W 01:13:55 51° S 01:27:56 10° ESE visible
01 Jul 9.7 03:17:48 10° W 03:27:55 34° SSW 03:42:34 10° SSE visible
01 Jul 10.6 05:34:56 10° WSW 05:42:47 14° SW 05:50:16 10° SSW visible
01 Jul 8.1 21:43:49 10° SW 21:48:29 35° SSE 21:55:57 10° E visible
01 Jul 8.4 23:53:39 10° WSW 00:00:17 52° S 00:12:02 10° ESE visible
02 Jul 9.2 02:04:44 10° W 02:13:31 41° SSW 02:27:43 10° SE visible
02 Jul 10.2 04:18:29 10° WSW 04:27:54 22° SSW 04:39:23 10° S visible
02 Jul 8.1 22:41:45 10° WSW 22:47:08 46° S 22:56:23 10° ESE visible
03 Jul 8.8 00:52:12 10° W 00:59:36 46° S 01:03:11 36° SSE visible
03 Jul 9.9 03:04:19 10° WSW 03:18:26 23° S 03:26:06 10° SSE visible
03 Jul 10.6 05:25:47 10° SW 05:28:05 10° SW 05:28:53 10° SSW visible
03 Jul 8.3 23:40:04 10° WSW 23:46:07 47° S 23:51:56 24° ESE visible
04 Jul 9.3 01:51:10 10° W 02:13:14 - SE 01:56:25 31° SW visible
04 Jul 10.7 04:18:09 14° S 04:18:09 14° S 04:21:50 10° S visible
04 Jul 8.0 22:28:08 10° WSW 22:33:06 44° S 22:41:24 10° ESE visible
05 Jul 8.7 00:38:39 10° WSW 00:45:21 40° S 00:46:04 39° S visible
05 Jul10.303:11:51SSE03:11:51SSE02:50:36WSWvisible
05 Jul 8.3 23:26:29 10° WSW 23:32:02 42° S 23:36:04 27° SE visible
06 Jul 9.6 01:37:47 10° WSW 01:40:37 21° WSW 01:40:37 21° WSW visible
06 Jul 7.9 22:14:33 10° WSW 22:19:07 40° S 22:26:15 11° ESE visible
07 Jul 8.8 00:25:11 10° WSW 00:30:50 33° SSW 00:30:50 33° SSW visible
07 Jul 8.3 23:12:59 10° WSW 23:18:00 36° S 23:21:10 26° SE visible
08 Jul 9.8 01:24:36 10° WSW 01:25:45 14° WSW 01:25:45 14° WSW visible
08 Jul 7.9 22:01:00 10° WSW 22:05:11 36° S 22:11:36 10° ESE visible
09 Jul 8.9 00:11:50 10° WSW 00:16:12 26° SSW 00:16:12 26° SSW visible
09 Jul 8.4 22:59:32 10° WSW 23:04:02 30° S 23:06:43 23° SSE visible
10 Jul 7.9 21:47:27 10° WSW 21:51:17 31° S 21:56:49 10° ESE visible
